Location: Steinbach
(49.5170°N, 96.6830°W)
Time: 05:19:22
(UTC-05:00)

Daily predictions for brighter satellites

Satellite Brightness Start Highest point End
(mag) Time Altitude Azimuth Time Altitude Azimuth Time Altitude Azimuth
Cosmos 44 Rocket 4.2 00:02:34 23° SSE 00:04:52 34° ESE 00:09:34 10° NE
H-2A R/B 4.0 00:04:20 10° NE 00:07:42 22° E 00:09:09 19° ESE
Terra 3.1 00:05:35 13° SSW 00:09:12 32° W 00:13:30 10° NNW
Aureole 2 Rocket 2.6 00:07:43 10° NNW 00:10:48 57° ENE 00:12:08 31° SE
Cosmos 2297 Rocket 2.2 00:05:50 10° SSW 00:11:31 86° WNW 00:17:13 10° NNE
Cosmos 1340 Rocket 4.4 00:10:33 19° ESE 00:11:45 22° E 00:14:48 10° NE
Cosmos 2219 Rocket 4.1 00:08:20 10° WNW 00:12:10 19° W 00:15:59 10° SW
Cosmos 1733 Rocket 4.5 00:14:20 20° ESE 00:16:08 26° E 00:19:49 10° NNE
Cosmos 1869 Rocket 3.5 00:13:38 25° S 00:16:16 82° E 00:20:45 10° NNE
Cosmos 374 Rocket 4.4 00:14:15 10° NW 00:18:04 77° SW 00:20:26 27° SSE
Cosmos 1943 4.4 00:12:49 10° NNW 00:18:07 37° NE 00:23:07 11° ESE
ATLAS 2AS CENTAUR R/B 3.0 00:11:40 10° SW 00:19:21 88° SE 00:27:33 10° NE
COS B Rocket 3.4 00:17:17 10° N 00:21:04 72° W 00:23:17 26° SSW
CZ-4C R/B 3.5 00:19:37 30° SE 00:21:05 52° ENE 00:24:38 10° N
BREEZE-M TANK 3.5 00:10:12 10° WSW 00:22:49 55° S 00:26:20 10° E
Tiangong 1 3.7 00:23:03 10° WSW 00:23:07 10° WSW 00:23:07 10° WSW
ATLAS 3B R/B 3.3 00:22:03 10° NW 00:28:39 44° WSW 00:32:31 22° S
Cosmos 1603 3.7 00:24:37 10° NNW 00:30:21 85° ENE 00:33:53 24° SSE
ALOS 2 2.8 00:30:07 27° SE 00:32:21 63° ENE 00:36:43 10° N
Coronas F rocket 3.3 00:33:07 19° E 00:33:07 19° E 00:35:03 10° NE
Okean 1-7 3.3 00:29:26 10° NNW 00:33:38 57° W 00:35:44 27° SSW
Cosmos 1689 Rocket 2.9 00:36:12 33° SE 00:37:17 48° ENE 00:40:30 10° N
USA 238 DEB 3.8 00:34:14 10° NW 00:41:15 70° SW 00:45:45 24° SSE
USA 238 3.8 00:34:20 10° NW 00:41:21 70° SW 00:45:52 24° SSE
Cosmos 2237 Rocket 4.3 00:41:55 10° WNW 00:45:16 16° W 00:48:37 10° SW
Cosmos 2251 Rocket 3.6 00:44:53 10° NNW 00:50:13 71° WSW 00:52:57 29° S
Cosmos 1892 2.8 00:52:20 38° SSE 00:53:33 62° E 00:57:19 10° NNE
NOSS 2-3 (E) 4.0 00:49:52 19° SSW 00:53:34 79° SE 00:59:34 10° NE
Cosmos 2084 Rocket 3.4 00:57:28 40° S 00:58:21 49° SE 01:02:03 10° NE
SL-08 ROCKET BODY 4.4 00:55:37 25° S 00:59:27 90° W 01:05:38 10° N
Cosmos 1674 Rocket 3.6 00:56:35 10° N 01:01:03 80° E 01:02:59 33° SSE
CENTAUR R/B 4.3 00:55:00 10° NW 01:01:53 39° NNE 01:09:22 10° E
Cosmos 44 3.9 01:00:25 29° S 01:02:39 46° ESE 01:07:52 10° NE
H-2A R/B 4.5 01:00:17 10° WSW 01:02:41 13° W 01:05:05 10° WNW
Cosmos 921 Rocket 3.6 01:02:02 31° SE 01:03:17 40° ESE 01:07:15 10° NNE
Nadezhda 3 Rocket 4.0 00:58:58 10° N 01:05:13 79° E 01:08:56 26° SSE
Cosmos 1238 Rocket 3.3 01:02:32 10° N 01:06:31 46° ENE 01:07:47 31° SE
Cosmos 494 Rocket 4.0 01:02:19 10° NNW 01:07:36 72° WSW 01:10:13 30° S
Cosmos 389 Rocket 4.4 01:05:26 10° NW 01:08:09 21° W 01:09:24 17° WSW
SeaSat 1 3.2 01:06:12 26° SSW 01:08:15 38° WSW 01:12:51 10° NW
Cosmos 2074 Rocket 4.2 01:04:11 22° SSW 01:08:26 69° WNW 01:14:44 10° N
USA 234 3.9 01:02:43 10° E 01:09:04 56° NNE 01:15:27 10° WNW
Cosmos 1607 3.9 01:03:01 10° NW 01:09:06 66° WSW 01:12:34 27° SSE
Cosmos 1610 Rocket 4.4 01:05:34 26° S 01:09:13 88° E 01:15:23 10° N
Lacrosse 4 Rocket 3.5 01:07:18 10° WNW 01:09:56 16° WSW 01:11:13 14° SW
Meteor 2-3 Rocket 4.0 01:07:29 22° SSW 01:11:13 66° WNW 01:16:55 10° N
CZ-4B R/B 1.7 01:10:53 42° SSW 01:11:45 56° WSW 01:15:06 10° NNW
BREEZE-M DEB (TANK) 1.9 01:11:12 40° SW 01:12:01 64° SSE 01:17:29 10° ENE
Cosmos 1975 Rocket 4.1 01:08:13 10° N 01:12:20 37° ENE 01:14:38 21° SE
Cosmos 1867 3.9 01:06:52 10° NW 01:12:22 67° NE 01:16:47 16° SE
Cosmos 1825 3.6 01:13:16 22° ESE 01:14:25 26° E 01:17:38 10° NNE
ASTEX 1 3.4 01:09:32 10° N 01:14:27 77° W 01:16:55 29° SSW
NOSS 3-2 (C) 4.0 01:07:30 10° NW 01:14:51 83° NE 01:22:15 13° SE
Cosmos 1356 Rocket 3.3 01:13:59 38° S 01:15:26 73° E 01:19:32 10° NNE
CZ-2C R/B 3.9 01:12:42 18° SE 01:16:40 49° ENE 01:21:58 10° N
Meteor 1-10 Rocket 4.4 01:11:56 10° NNW 01:17:52 71° W 01:21:07 28° S
NOSS 2-3 (C) 4.3 01:16:25 13° SW 01:20:59 73° NW 01:27:08 10° NE
GEOS 3 Rocket 4.1 01:19:33 29° S 01:21:42 44° WSW 01:26:40 10° NW
Cosmos 1908 Rocket 3.9 01:21:52 33° SSE 01:23:32 54° E 01:27:47 10° NNE
MOS 1-B Rocket 3.8 01:25:22 27° SSE 01:28:34 86° WSW 01:34:14 10° NNW
Cosmos 2227 Rocket 4.4 01:24:58 10° W 01:29:28 23° NW 01:33:59 10° NNE
Cosmos 2263 Rocket 3.1 01:27:59 24° SSE 01:30:25 35° ESE 01:35:30 10° NE
Meteor 2-10 Rocket 4.3 01:25:28 10° NNW 01:30:46 46° W 01:33:45 25° SSW
Okean 3 3.6 01:30:49 10° N 01:35:08 69° ENE 01:37:03 32° SSE
NOSS 3-2 (A) 4.0 01:29:50 10° NW 01:37:10 71° SW 01:43:00 20° SSE
Cosmos 1782 3.4 01:34:38 10° NNW 01:38:27 44° W 01:39:44 32° SW
Cosmos 2154 Rocket 4.0 01:35:33 26° SSW 01:39:20 79° W 01:45:39 10° N
SL-16 R/B 4.3 01:36:56 10° WNW 01:39:23 13° W 01:41:51 10° WSW
Landsat 5 4.5 01:38:03 28° SW 01:39:48 39° W 01:44:06 10° NNW
ERBS 4.4 01:37:20 10° W 01:40:27 30° NNW 01:43:34 10° NE
NOSS 3-4 (A) 4.0 01:38:07 27° S 01:41:16 47° ESE 01:47:32 10° NE
NOSS 3-4 (C) 4.0 01:38:14 27° S 01:41:21 46° ESE 01:47:37 10° NE
ATLAS 5 CENTAUR R/B 4.3 01:37:02 10° NW 01:41:55 29° NNE 01:47:08 10° E
CZ-4C R/B 3.0 01:35:16 10° NW 01:42:05 58° SW 01:46:52 23° SSE
H-2A R/B 3.4 01:39:26 10° N 01:43:26 43° WNW 01:45:48 22° SW
Cosmos 44 Rocket 4.2 01:41:14 10° WSW 01:46:18 51° NW 01:51:26 10° NNE
CZ-2C R/B 2.6 01:42:25 10° NNE 01:47:41 76° ESE 01:50:19 30° S
Cosmos 1340 Rocket 3.9 01:46:11 22° WSW 01:48:03 35° WNW 01:51:43 10° N
COSMOS 2406 4.1 01:46:46 10° NNW 01:52:24 49° NE 01:57:59 10° SE
Cosmos 1733 Rocket 4.1 01:51:25 21° SW 01:53:47 37° WNW 01:57:58 10° N
Helios 1A Rocket 3.4 01:52:06 10° N 01:56:12 56° WNW 01:58:10 28° SW
Cosmos 2297 Rocket 4.4 01:52:08 10° W 01:56:25 22° NW 02:00:43 10° N
Sich 1 Rocket 4.1 01:56:30 28° SW 01:58:39 54° WNW 02:03:07 10° N
Cosmos 1378 Rocket 4.0 01:57:25 10° NNW 02:01:40 50° W 02:03:20 31° SSW
BREEZE-M DEB (TANK) 4.0 01:44:32 10° WSW 02:01:52 66° SSE 02:06:20 10° E
Cosmos 1943 3.6 01:56:53 10° NW 02:02:18 46° WSW 02:04:53 28° SSW
Coronas F rocket 3.5 02:04:13 17° W 02:04:47 18° WNW 02:06:46 10° NNW
Cosmos 1606 3.7 02:05:20 10° NNW 02:08:50 33° W 02:09:59 27° SW
Cosmos 407 Rocket 4.1 02:04:28 10° NNW 02:09:32 53° ENE 02:14:15 12° SE
Cosmos 1371 Rocket 4.5 02:07:07 27° SSE 02:09:49 51° ESE 02:15:00 10° NNE
Cosmos 2056 Rocket 4.3 02:08:09 23° SSE 02:10:49 39° ESE 02:15:39 10° NE
Meteor 2-13 Rocket 4.4 02:07:29 26° SSW 02:11:07 83° W 02:17:18 10° N
RESURS DK-1 3.0 02:09:47 31° SSE 02:11:13 43° ESE 02:15:10 10° NE
ATLAS 2AS CENTAUR R/B 4.3 02:03:57 10° W 02:11:19 40° NNW 02:18:56 10° NE
Meteor 1-27 Rocket 4.4 02:06:10 10° NNW 02:11:42 45° W 02:14:41 25° SSW
Cosmos 2341 Rocket 4.4 02:10:23 23° SSW 02:14:27 57° WNW 02:20:44 10° N
Abrixas rocket 3.5 02:17:35 27° SE 02:17:35 27° SE 02:19:57 10° E
Cosmos 1959 Rocket 4.5 02:13:15 25° S 02:17:04 84° E 02:23:18 10° N
SL-8 Rocket 4.1 02:20:03 25° SSW 02:23:58 76° W 02:30:20 10° N
Geosat 4.3 02:19:00 10° NNE 02:24:00 65° NW 02:27:21 21° SW
SL-27 R/B 3.3 02:23:02 10° NNW 02:26:38 50° ENE 02:29:13 17° SE
Cosmos 1339 Rocket 4.5 02:20:37 10° N 02:26:45 82° E 02:31:04 20° SSE
Cosmos 1862 4.2 02:25:52 25° SW 02:27:39 40° WNW 02:31:30 10° N
Meteor 2-8 Rocket 4.4 02:23:23 10° N 02:29:30 88° W 02:33:40 22° S
Meteor 1-14 Rocket 4.4 02:26:24 24° S 02:30:05 73° E 02:35:56 10° NNE
PSLV R/B 4.4 02:29:40 31° SSW 02:31:09 45° W 02:35:05 10° NNW
Cosmos 1408 3.4 02:30:02 27° SW 02:31:34 41° WNW 02:35:10 10° N
Cosmos 1782 Rocket 4.0 02:30:18 27° SW 02:32:25 50° WNW 02:36:45 10° N
Okean 2 Rocket 3.4 02:32:28 27° SW 02:34:44 57° WNW 02:39:12 10° N
Cosmos 2218 Rocket 4.1 02:31:58 24° SSW 02:35:57 74° W 02:42:21 10° N
Iridium 4 Rocket 3.4 02:32:14 10° N 02:36:56 76° E 02:40:13 22° S
Elektron 3 4.2 02:38:42 10° WNW 02:41:33 49° SW 02:44:09 19° SSE
ERS-2 4.2 02:40:03 10° NE 02:42:52 20° E 02:45:16 12° SE
Cosmos 1954 Rocket 4.4 02:40:33 10° NNW 02:45:42 63° ENE 02:50:50 10° SE
Cosmos 1184 Rocket 3.0 02:45:25 34° SW 02:46:39 60° WNW 02:50:00 10° N
Cosmos 909 Rocket 4.4 02:43:36 22° SSW 02:47:55 67° ESE 02:55:33 10° NE
Cosmos 2366 rocket 4.1 02:44:07 23° SSW 02:48:06 69° WNW 02:54:21 10° N
Cosmos 1825 3.6 02:48:13 19° WSW 02:50:00 27° WNW 02:53:18 10° NNW
Cosmos 1975 Rocket 4.5 02:46:26 10° NNW 02:50:02 25° W 02:51:47 19° WSW
Meteor 1-18 Rocket 4.2 02:44:36 10° NNW 02:50:16 82° W 02:54:31 19° S
USA 234 3.2 02:45:27 10° SE 02:51:59 75° SW 02:58:33 10° WNW
CENTAUR R/B 3.1 02:45:46 10° NW 02:53:28 87° SW 03:01:45 10° SE
Cosmos 1300 Rocket 4.3 02:50:51 18° SSE 02:53:44 45° E 02:57:55 10° NNE
Cosmos 1624 Rocket 4.0 02:51:36 24° SSW 02:54:49 88° WNW 03:00:08 10° NNE
CZ-2C R/B 4.3 02:53:45 20° SW 02:56:41 31° W 03:01:36 10° NNW
Cosmos 1812 2.7 02:53:27 10° N 02:57:22 84° E 02:59:49 22° SSE
Gbstr 26 Del rocket 4.2 03:00:16 20° SSE 03:01:17 22° SE 03:04:17 10° E
Cosmos 1536 Rocket 3.8 02:57:55 10° NNW 03:02:12 53° W 03:04:37 24° SSW
USA 161 3.9 03:02:35 10° ESE 03:04:54 22° ENE 03:07:17 10° NNE
Cosmos 1242 Rocket 3.6 03:02:41 10° NNW 03:05:47 30° W 03:06:54 24° SW
Meteor 1-20 Rocket 4.4 03:03:18 19° S 03:07:36 75° E 03:13:22 10° NNE
Cosmos 1844 Rocket 3.3 03:06:36 18° S 03:10:37 48° ESE 03:16:04 10° NE
ARIANE 5 R/B 4.3 03:08:46 10° NE 03:12:47 24° E 03:16:47 10° SE
Cosmos 2263 Rocket 2.9 03:09:40 15° WSW 03:14:13 47° NW 03:19:43 10° NNE
Cosmos 1452 Rocket 3.8 03:12:45 19° S 03:16:30 61° ESE 03:21:42 10° NNE
IRS-P3 4.2 03:12:18 10° NNE 03:17:42 79° ESE 03:21:47 18° S
Meteor 1-13 Rocket 4.3 03:14:42 10° N 03:20:25 82° ENE 03:26:13 10° SSE
Resurs 1-4 Rocket 4.0 03:17:26 10° NE 03:21:36 23° E 03:25:44 10° SE
CBERS-1 4.3 03:18:05 10° NNE 03:23:14 65° ESE 03:27:27 15° S
Cosmos 1844 4.4 03:20:36 15° S 03:25:05 47° ESE 03:30:36 10° NE
PSLV R/B 4.0 03:22:05 10° N 03:26:10 50° WNW 03:28:57 19° SW
CZ-2C R/B 4.5 03:23:43 10° NNW 03:27:25 20° WNW 03:31:04 10° WSW
ATLAS 5 CENTAUR R/B 2.5 03:21:35 10° NW 03:27:27 79° NE 03:33:46 10° SE
SL-24 DEB 4.2 03:23:22 10° N 03:28:02 79° W 03:31:37 17° SSW
Okean 1 3.6 03:24:14 10° NNW 03:28:07 51° W 03:30:43 19° SSW
NOSS 3-4 (A) 4.3 03:25:53 10° WSW 03:32:11 51° NW 03:38:44 10° NE
NOSS 3-4 (C) 4.2 03:25:58 10° WSW 03:32:16 52° NW 03:38:50 10° NE
ADEOS 4.1 03:27:58 10° NNE 03:33:08 56° E 03:37:58 12° S
Cosmos 1140 Rocket 3.4 03:28:34 10° NNW 03:33:44 81° WSW 03:38:51 10° SSE
Cosmos 1400 Rocket 4.5 03:31:29 10° SSE 03:34:50 28° E 03:38:15 10° NNE
Cosmos 1934 Rocket 4.1 03:29:13 13° S 03:34:53 76° E 03:41:01 10° NNE
COSMOS 2487 2.5 03:31:23 10° NNW 03:35:02 89° ENE 03:38:40 10° SSE
COSMOS 2406 4.0 03:31:27 10° NW 03:36:34 33° WSW 03:40:33 15° SSW
Okean 1-7 Rocket 3.8 03:32:22 10° NNW 03:36:52 56° W 03:40:30 15° S
Cosmos 2278 Rocket 3.1 03:32:42 11° S 03:37:43 41° ESE 03:43:00 10° NE
Cosmos 1633 3.9 03:34:45 10° SSE 03:38:03 35° E 03:41:25 10° NNE
Okean 1 Rocket 3.1 03:35:29 18° SSW 03:38:49 74° W 03:43:19 10° N
Timation 2 Rocket 4.0 03:38:59 10° NNW 03:45:15 81° ENE 03:51:16 10° SSE
RESURS DK-1 4.0 03:45:54 10° WSW 03:49:27 26° NW 03:53:01 10° NNE
Okean O Rocket 4.2 03:48:48 10° NE 03:51:18 15° E 03:53:47 10° SE
Cosmos 2082 Rocket 3.1 03:46:16 10° NNW 03:51:55 55° NE 03:57:31 10° SE
Cosmos 1602 3.7 03:48:58 14° S 03:52:13 87° E 03:56:06 10° N
Cosmos 1025 Rocket 3.0 03:48:08 10° NNW 03:52:27 77° W 03:56:45 10° S
NOSS 2-2 (C) 4.1 03:50:13 15° SSW 03:53:35 51° SE 03:58:27 10° NE
Abrixas rocket 2.2 03:50:30 10° WSW 03:53:48 69° S 03:57:09 10° E
Cosmos 1850 Rocket 4.0 03:48:49 10° NNW 03:54:02 72° WSW 03:59:16 10° SSE
Cosmos 1741 Rocket 4.0 03:51:49 10° NNW 03:57:06 70° WSW 04:02:19 10° SSE
Meteor 2-14 Rocket 4.5 03:54:41 11° S 04:00:36 84° W 04:06:44 10° N
GP-B 3.8 03:56:38 10° NNW 04:00:48 40° W 04:04:26 13° SSW
SL-27 R/B 4.5 03:59:26 10° WNW 04:01:32 15° W 04:02:56 12° WSW
Cosmos 1455 Rocket 4.2 03:57:36 10° SSE 04:01:49 42° E 04:06:01 10° NNE
Spot 4 Rocket 4.1 03:58:24 10° NNE 04:03:36 85° ESE 04:08:45 10° SSW
Cosmos 1315 Rocket 4.2 04:00:14 10° SSE 04:03:57 35° E 04:07:39 10° NNE
Meteor 2-4 Rocket 3.6 03:59:01 10° NNW 04:04:28 83° W 04:09:49 10° S
SL-08 R/B 4.3 04:02:18 13° SSW 04:06:11 32° W 04:10:33 10° NNW
NPP 4.1 04:03:27 10° N 04:08:39 50° WNW 04:13:38 11° SW
BREEZE-M DEB (TANK) 3.7 03:53:56 10° W 04:09:11 87° SSW 04:13:01 10° ESE
Cosmos 1605 Rocket 4.0 04:06:38 10° S 04:12:50 82° W 04:19:11 10° N
Cosmos 2123 Rocket 4.3 04:06:42 10° NNW 04:12:52 55° W 04:19:00 10° SSW
Cosmos 1821 Rocket 4.4 04:08:12 11° SSW 04:14:09 52° WNW 04:20:25 10° N
SL-16 R/B 2.6 04:08:13 10° SSE 04:14:27 79° WSW 04:20:42 10° NNW
AQUA 4.4 04:11:04 10° N 04:15:37 45° WNW 04:20:05 10° SW
ERS-2 3.0 04:13:20 10° N 04:16:48 37° WNW 04:20:07 11° SW
NOSS 2-2 (E) 3.8 04:14:35 11° SW 04:18:42 86° SE 04:24:02 10° NE
SME Rocket 3.0 04:18:51 10° S 04:22:37 74° WSW 04:27:17 10° NNW
IRS-1D 3.6 04:18:04 10° NNE 04:23:12 83° ESE 04:28:12 10° SSW
UNKNOWN OBJECT B 3.8 04:19:48 10° NNE 04:23:47 48° E 04:27:45 10° S
Okean 2 3.4 04:19:53 10° NNW 04:23:59 69° W 04:28:03 10° S
CZ-2D R/B 2.5 04:19:09 10° NNE 04:24:37 70° ESE 04:30:05 10° S
Cosmos 1544 Rocket 3.6 04:23:09 10° SSW 04:27:34 80° W 04:31:59 10° N
Cosmos 614 Rocket 4.3 04:22:52 10° NW 04:27:48 44° WSW 04:32:37 10° S
Cosmos 1536 3.2 04:26:57 10° SSW 04:30:54 50° WNW 04:34:52 10° N
Cosmos 1833 Rocket 2.9 04:26:16 10° NNW 04:31:55 81° ENE 04:37:32 10° SSE
MTI 3.8 04:30:44 10° S 04:34:02 77° WSW 04:37:21 10° NNW
USA 161 3.1 04:32:59 10° SW 04:35:15 21° W 04:37:36 10° NW
USA 234 4.2 04:30:31 10° S 04:35:44 25° SW 04:40:57 10° WNW
CZ-2C R/B 4.3 04:31:01 10° SSE 04:35:45 68° ENE 04:40:32 10° N
CENTAUR R/B 4.0 04:37:18 10° WNW 04:43:31 26° WSW 04:49:59 10° SSW
Cosmos 1174 3.8 04:41:13 10° NW 04:44:56 44° WSW 04:48:01 10° SSE
Cosmos 1486 Rocket 4.3 04:41:43 10° NNW 04:47:04 81° ENE 04:52:25 10° SSE
Cosmos 2173 Rocket 4.2 04:42:16 10° S 04:48:21 78° E 04:54:34 10° NNE
